Home   Weather   Winterthur   Past weeks

Flag for Switzerland Past Weather in Winterthur, Switzerland — Yesterday and Last 2 Weeks

Now
68 °F

Scattered clouds.


Feels Like: 68 °F
Forecast: 47 / 71 °F
Wind: 8 mph from Southwest

Location: Zurich-Kloten

Current Time: Sep 28, 2016 at 2:02:00 PM

Latest Report: Sep 28, 2016 at 1:20 PM


Visibility: N/A

Pressure: 30.45 "Hg

Humidity: 64%

Dew Point: 55 °F

Location of WinterthurLocation

Past Weather in Winterthur — Graph

°F

Winterthur Temperature Yesterday

Maximum temperature yesterday: 70 °F (at 4:20 PM)
Minimum temperature yesterday: 50 °F (at 11:50 PM)
Average temperature yesterday: 60 °F

High & Low Weather Summary for the Past Weeks

 TemperatureHumidityPressure
High82 °F (Sep 13, 3:20 PM)100% (Sep 14, 2:50 AM)30.48 "Hg (Sep 14, 2:50 AM)
Low41 °F (Sep 22, 6:20 AM)38% (Sep 25, 4:50 PM)29.80 "Hg (Sep 15, 3:20 AM)
Average59 °F81%30.10 "Hg
* Reported Sep 13 1:20 PM — Sep 28 1:20 PM, Winterthur, Weather by CustomWeather, © 2016

Note: Actual official high and low records may vary slightly from our data, if they occured in-between our weather recording intervals... More about our weather records

Advertising

Winterthur Weather History for the Previous 24 Hours

Scroll right to see more
 ConditionsComfort  
Time TempWeatherWind HumidityBarometerVisibility
1:20 PM
Wed, Sep 28
68 °FScattered clouds.8 mph64%30.45 "HgN/A
12:20 PM64 °FScattered clouds.6 mph73%30.45 "Hg6 mi
11:50 AM63 °FPassing clouds.3 mph77%30.48 "Hg4 mi
11:20 AM59 °FFog.2 mph94%30.48 "Hg3 mi
10:50 AM57 °FFog.2 mph94%30.48 "Hg2 mi
10:20 AM55 °FFog.2 mph94%30.48 "Hg1 mi
9:50 AM54 °FFog.3 mph100%30.48 "Hg1 mi
9:20 AM54 °FDense fog.2 mph100%30.45 "Hg1 mi
8:50 AM52 °FDense fog.1 mph100%30.45 "Hg0 mi
8:20 AM52 °FDense fog.3 mph94%30.45 "Hg0 mi
7:50 AM50 °FDense fog.2 mph100%30.45 "Hg0 mi
7:20 AM48 °FDense fog.No wind100%30.42 "Hg1 mi
6:50 AM48 °FDense fog.1 mph100%30.42 "Hg1 mi
6:20 AM48 °FDense fog.1 mph100%30.42 "Hg0 mi
5:50 AM46 °FPassing clouds.No wind100%30.42 "Hg1 mi
5:20 AM46 °FPassing clouds.1 mph100%30.42 "Hg1 mi
4:50 AM46 °FCool.2 mph100%30.42 "Hg1 mi
4:20 AM46 °FPassing clouds.2 mph100%30.42 "Hg1 mi
3:50 AM46 °FLight fog.1 mph100%30.42 "Hg0 mi
3:20 AM46 °FLight fog.2 mph100%30.42 "Hg4 mi
2:50 AM46 °FPassing clouds.2 mph100%30.39 "Hg1 mi
1:50 AM48 °FLight fog.No wind94%30.39 "Hg4 mi
1:20 AM48 °FLight fog.2 mph100%30.39 "Hg5 mi
12:50 AM48 °FCool.No wind100%30.39 "Hg5 mi
12:20 AM50 °FFog.1 mph100%30.39 "HgN/A
11:50 PM
Tue, Sep 27
50 °FFog.No wind100%30.39 "HgN/A
11:20 PM52 °FFog.2 mph100%30.39 "HgN/A
10:50 PM52 °FFog.1 mph100%30.39 "HgN/A
10:20 PM54 °FClear.1 mph94%30.39 "Hg10 mi
9:50 PM55 °FClear.2 mph88%30.39 "Hg10 mi
9:20 PM57 °FClear.1 mph82%30.39 "Hg10 mi
8:50 PM55 °FPassing clouds.3 mph88%30.36 "HgN/A
8:20 PM57 °FClear.2 mph82%30.36 "Hg10 mi
7:50 PM63 °FClear.2 mph73%30.36 "Hg10 mi
7:20 PM64 °FPassing clouds.3 mph68%30.33 "HgN/A
6:50 PM66 °FSunny.2 mph60%30.33 "Hg10 mi
6:20 PM68 °FPassing clouds.3 mph56%30.33 "HgN/A
5:50 PM68 °FPassing clouds.2 mph60%30.33 "HgN/A
5:20 PM68 °FPassing clouds.3 mph60%30.30 "HgN/A
4:50 PM68 °FPassing clouds.5 mph60%30.30 "HgN/A
4:20 PM70 °FPassing clouds.2 mph57%30.30 "HgN/A
3:50 PM68 °FPassing clouds.3 mph60%30.30 "HgN/A
3:20 PM68 °FPassing clouds.5 mph64%30.30 "HgN/A
2:50 PM68 °FPassing clouds.3 mph60%30.30 "HgN/A
2:20 PM66 °FScattered clouds.2 mph64%30.30 "HgN/A
Weather by CustomWeather, © 2016

See weather overviewHow to use our weather pages